Regional Weather Roundup
Issued by NWS Kansas City/Pleasant Hill, MO

Home | Current Version | Previous Version | Graphics & Text | Print | Product List | Glossary Off
Versions: 1 2 3 4 5 6 7 8 9 10 11 12 13 14 15 16 17 18 19 20 21 22 23 24 25 26 27 28 29 30 31 32 33 34 35 36 37 38 39 40 41 42 43 44 45 46 47 48 49 50

000
ASUS43 KEAX 310710
RWREAX

WEATHER ROUNDUP FOR EASTERN KANSAS AND NORTHWEST MISSOURI
NATIONAL WEATHER SERVICE KANSAS CITY/PLEASANT HILL MO
100 AM CST SAT JAN 31 2015

KSZ040-057-103>105-MOZ028-029-037-043-310800-
...KANSAS CITY METROPOLITAN AREA...

CITY           SKY/WX    TMP DP  RH WIND       PRES   REMARKS
K.C. INTL      CLOUDY    32  23  69 S6        30.31F WCI  26
K.C. DOWNTOWN  CLOUDY    37  22  54 CALM      30.33F
LEES SUMMIT    CLOUDY    37  21  52 S8        30.32F WCI  31
OLATHE - IXD   CLOUDY    34  24  67 S3        30.32F
OLATHE - OJC   CLOUDY    34  24  67 S3        30.32F
LAWRENCE       LGT RAIN  34  27  75 CALM      30.33F

$$

MOZ001>008-011>017-020>025-030>033-038>040-044>046-053-054-310800-
...NORTHERN AND CENTRAL MISSOURI...

CITY           SKY/WX    TMP DP  RH WIND       PRES   REMARKS
ST. JOSEPH     CLOUDY    31  24  75 S6        30.32F WCI  25
MOSBY          CLOUDY    32  23  69 CALM      30.33F
WARRENSBURG    CLOUDY    32  21  64 CALM      30.34F
WHITEMAN AFB   CLOUDY    31  21  66 SE1       30.33F
CLINTON        CLOUDY    34  30  86 MISG      30.35F
SEDALIA        CLOUDY    31  23  72 S6        30.34F WCI  25
WARSAW         NOT AVBL
MARSHALL       CLOUDY    32  23  69 S3        30.37F
CHILLICOTHE      N/A     30  20  66 S5        30.33F WCI  25
MOBERLY        CLOUDY    30  19  64 S6        30.35F WCI  24
KIRKSVILLE     CLOUDY    29  20  69 S6        30.32F WCI  23

$$

MOZ041-047>049-056>058-063>065-088>090-097-310800-
...EASTERN AND SOUTHERN MISSOURI...

CITY           SKY/WX    TMP DP  RH WIND       PRES   REMARKS
ST. LOUIS INTL CLOUDY    33  19  56 S5        30.38F WCI  29
SPIRIT OF STL  CLOUDY    25  20  81 CALM      30.37F
COLUMBIA       CLOUDY    30  20  66 S7        30.34F WCI  23
JEFFERSON CITY CLOUDY    29  20  69 SE5       30.37F WCI  24
MEXICO         CLOUDY    30  27  86 S5        30.35F WCI  25
HANNIBAL       MOCLDY    28  18  64 S6        30.34F WCI  22
ROLLA          CLOUDY    33  18  53 SE6       30.33F WCI  28
LEBANON        CLOUDY    36  19  51 S3        30.35S
OSAGE BEACH    CLOUDY    34  18  51 CALM      30.35F
SPRINGFIELD    CLOUDY    38  20  48 SE3       30.33F
BRANSON        CLOUDY    39  19  45 S3        30.34F
NEVADA         CLOUDY    36  25  64 CALM      30.34F
JOPLIN         CLOUDY    39  28  64 CALM      30.34F
WEST PLAINS    CLOUDY    34  23  64 S6        30.37S WCI  29

$$

IAZ060-094-KSZ022-034>040-054-083-096-NEZ052-066-093-310800-
...KANSAS...SOUTHEAST NEBRASKA AND IOWA...

CITY           SKY/WX    TMP DP  RH WIND       PRES   REMARKS
TOPEKA         LGT RAIN  37  30  75 S6        30.32F WCI  32
MANHATTAN      LGT RAIN  35  35 100 CALM      30.29F FOG
EMPORIA        LGT RAIN  35  33  92 SE8       30.28F WCI  29
CHANUTE        LGT RAIN  37  31  78 S6        30.33F WCI  32
WICHITA        CLOUDY    39  24  55 S7        30.26F WCI  34
OMAHA          CLOUDY    33  25  72 SE8       30.23F WCI  26
LINCOLN        CLOUDY    37  29  72 SW9       30.24F WCI  30
FALLS CITY     CLOUDY    34  23  64 S8        30.28F WCI  27
LAMONI         MOCLDY    28  18  66 S10       30.27F WCI  19
DES MOINES     PTCLDY    27  18  69 S7        30.25F WCI  19

$$



USA.gov is the U.S. government's official web portal to all federal, state and local government web resources and services.